Regional Weather Roundup
Issued by NWS

Home | Current Version | Previous Version | Graphics & Text | Print | Product List | Glossary On
Versions: 1 2 3 4 5 6 7 8 9 10 11 12 13 14 15 16 17 18 19 20 21 22 23 24 25 26 27 28 29 30 31 32 33 34 35 36 37 38 39 40 41 42 43 44 45 46 47 48 49 50
986
ASUS44 KLIX 261901
RWRLA
LOUISIANA WEATHER ROUNDUP
NATIONAL WEATHER SERVICE NEW ORLEANS LA
100 PM CST WED NOV 26 2014

NOTE: "FAIR" INDICATES FEW OR NO CLOUDS BELOW 12,000 FEET WITH NO
      SIGNIFICANT WEATHER AND/OR OBSTRUCTIONS TO VISIBILITY.
      SKY/WX - SKY CONDITION AND SIGNIFICANT WEATHER.
      TMP - AIR TEMPERATURE.    DP   - DEWPOINT TEMPERATURE.
      RH  - RELATIVE HUMIDITY.  PRES - PRESSURE.
      HX  - HEAT INDEX.         WCI  - WIND CHILL INDEX.

*  THESE STATIONS ARE NOT NWS OR FAA STATIONS AND ARE NOT UNDER
   NWS QUALITY CONTROL.

LAZ040-048-061>063-065-066-069-262000-
SOUTHEAST LOUISIANA

CITY           SKY/WX    TMP DP  RH WIND       PRES   REMARKS
N.O. AUDUBON     N/A     68  38  34 MISG        N/A
N.O. INTL ARPT MOSUNNY   67  31  26 SW9       30.20F
N.O. LAKEFRONT SUNNY     65  33  30 SW8       30.22F
N.O. DOWNTOWN* FAIR      64  34  32 S7        30.22F
SLIDELL        SUNNY     62  33  33 SW8       30.20F
BATON ROUGE    SUNNY     69  33  26 SW22G30   30.18F
BOOTHVILLE     SUNNY     59  36  42 SW9       30.25F
BELLE CHASSE   SUNNY     66  29  24 W9        30.21F
BOGALUSA*        N/A     66  33  28 SW15      30.19F
NEW ROADS*     NOT AVBL
GONZALES*      NOT AVBL
HAMMOND*       NOT AVBL
HOUMA*         NOT AVBL
PORT FOURCHON* CLEAR     63  41  45 SW9       30.27F

$$

LAZ041-044-053-054-262000-
SOUTHWEST LOUISIANA

CITY           SKY/WX    TMP DP  RH WIND       PRES   REMARKS
LAKE CHARLES   SUNNY     69  41  36 W14G22    30.18F
LAFAYETTE      SUNNY     69  38  32 W21G28    30.19F
PATTERSON      SUNNY     68  39  34 W16G25    30.24F
SALT POINT       N/A     67  50  54 VRB5      30.22F
NEW IBERIA     LGT RAIN  70  41  34 W16G23    30.20F
CHENAULT AIRPK SUNNY     70  39  32 SW16G24   30.18F

$$

LAZ027-028-262000-
CENTRAL LOUISIANA

CITY           SKY/WX    TMP DP  RH WIND       PRES   REMARKS
FORT POLK      SUNNY     67  37  33 SW18G32   30.13F
ALEXANDRIA INT SUNNY     68  39  34 SW16G26   30.11F
ALEXANDRIA     SUNNY     70  38  31 SW20G30   30.11F

$$

LAZ001-002-262000-
NORTHWEST LOUISIANA

CITY           SKY/WX    TMP DP  RH WIND       PRES   REMARKS
SHREVEPORT     MOSUNNY   66  32  28 W16       30.09F
BARKSDALE AFB  SUNNY     65  30  27 W14       30.09F
DTN SHREVEPORT SUNNY     64  29  26 W12G18    30.09F

$$

LAZ014-016-262000-
NORTHEAST LOUISIANA

CITY           SKY/WX    TMP DP  RH WIND       PRES   REMARKS
MONROE         MOSUNNY   68  36  30 W23G29    30.06F
TALLULAH       SUNNY     65  36  34 SW13G25   30.07F

$$




USA.gov is the U.S. government's official web portal to all federal, state and local government web resources and services.